Regional Weather Roundup
Issued by NWS

Home | Current Version | Previous Version | Text Only | Print | Product List | Glossary Off
Versions: 1 2 3 4 5 6 7 8 9 10 11 12 13 14 15 16 17 18 19 20 21 22 23 24 25 26 27 28 29 30 31 32 33 34 35 36 37 38 39 40 41 42 43 44 45 46 47 48 49 50

952
ASUS43 KLOT 280508
RWRIL

ILLINOIS REGIONAL WEATHER ROUNDUP
NATIONAL WEATHER SERVICE CHICAGO/ROMEOVILLE IL
1200 AM CDT TUE MAR 28 2017

NOTE: "FAIR" INDICATES FEW OR NO CLOUDS BELOW 12,000 FEET WITH NO
SIGNIFICANT WEATHER AND/OR OBSTRUCTIONS TO VISIBILITY.

* THESE STATIONS ARE NOT UNDER NWS QUALITY CONTROL. THEY ALSO MAY NOT
  REPORT WEATHER SUCH AS PRECIPITATION OR FOG.

ILZ001-002-007-009-015-016-024-280600-
NORTHWEST ILLINOIS

CITY           SKY/WX    TMP DP  RH WIND       PRES   REMARKS
MOLINE         CLOUDY    50  44  80 CALM      29.98S
STERLING*      CLOUDY    48  46  93 N7        29.99R
SAVANNA*       CLOUDY    48  44  87 CALM      30.00R
$$

ILZ003-004-008-010-011-017-018-280600-
NORTH CENTRAL ILLINOIS

CITY           SKY/WX    TMP DP  RH WIND       PRES   REMARKS
ROCKFORD       DRIZZLE   47  44  90 E6        30.00S FOG
FREEPORT*      CLOUDY    45  44  97 CALM      30.00F FOG
ROCHELLE*      CLOUDY    46  44  93 NE5       29.99R FOG
DE KALB*       CLOUDY    43  41  92 NE9       29.99S
PERU*          CLOUDY    46  44  92 NE8       29.98R FOG
$$

ILZ005-006-012>014-019>023-280600-
NORTHEAST ILLINOIS

CITY           SKY/WX    TMP DP  RH WIND       PRES   REMARKS
CHICAGO-OHARE  CLOUDY    42  36  79 N7        29.98S
CHICAGO-MIDWAY CLOUDY    42  37  82 N7        29.98S
AURORA         CLOUDY    44  39  82 NE8       29.98R
LANSING*       CLOUDY    40  38  93 N8        29.97F
JOLIET*        CLOUDY    44  39  83 NE8       29.97S
WAUKEGAN       CLOUDY    39  37  92 N5        29.99S
DUPAGE AIRPORT CLOUDY    41  38  89 NE7       29.98R
KANKAKEE*      CLOUDY    42  39  88 NE10      29.95F
WHEELING       CLOUDY    40  37  89 N6        30.00R
MORRIS*        CLOUDY    45  40  85 CALM      29.96S
ROMEOVILLE*    CLOUDY    42  39  90 NE14      29.97S
NORTHERLY ISL    N/A     39  37  92 N8          N/A  WCI  33
$$

LMZ740>746-280600-
SOUTHERN LAKE MICHIGAN

STATION/POSITION SKY/WX   TEMP    WIND        PRES    VSBY  WAVE
                          AIR SEA DIR/SP/G                  HT/PER
                          (F)     (DEG/KT/KT) (MB)    (MI)  (FT/S)
HARRISON CRIB              39     350/ 10/ 11   N/A
BURNHAM HARBOR             39     350/  9/ 10   N/A
CALUMET HARBOR             39     340/  8/ 11 1014.7S
BURNS HARBOR               39     350/  9/ 12 1015.6R
MICHIGAN CITY              38     350/  7/  8   N/A
$$

ILZ025>027-034>036-040-047-049-050-058-095>099-280600-
WEST-CENTRAL ILLINOIS

CITY           SKY/WX    TMP DP  RH WIND       PRES   REMARKS
QUINCY         CLOUDY    50  48  93 N6        29.98R
GALESBURG*     CLOUDY    49  48  97 N7        29.97R
MACOMB*        CLOUDY    50  48  94 N8        30.00R
JACKSONVILLE*  CLOUDY    52  49  91 N8        29.95R
PITTSFIELD*    CLOUDY    52  50  90 N7        29.97R
$$

ILZ028>032-037-038-041>044-048-051>054-059>061-280600-
CENTRAL ILLINOIS

CITY           SKY/WX    TMP DP  RH WIND       PRES   REMARKS
PONTIAC        CLOUDY    46  45  98 NE8       29.96R FOG
BLOOMINGTON    CLOUDY    48  47  96 NE14      29.94S FOG
DECATUR        MOCLDY    52  50  93 N9        29.91S
PEORIA         CLOUDY    51  49  92 N8        29.96R
LACON*         CLOUDY    50  50  99 N3        29.96S FOG
LINCOLN*       CLOUDY    51  51  99 N5        29.93F FOG
SPRINGFIELD    CLOUDY    53  50  89 NW8       29.94S
TAYLORVILLE    CLOUDY    52  52 100 N13       29.92S
$$

ILZ033-039-045-046-055>057-062-063-280600-
EAST-CENTRAL ILLINOIS

CITY           SKY/WX    TMP DP  RH WIND       PRES   REMARKS
CHAMPAIGN      CLOUDY    52  49  89 N12       29.91S FOG
RANTOUL*       CLOUDY    48  47  97 N13       29.92S FOG
MATTOON        CLOUDY    53  53 100 NE15      29.88R
PARIS*         DRIZZLE   54  54  99 N10       29.88F
$$

ILZ079-100>102-280600-
SOUTHWEST ILLINOIS

CITY           SKY/WX    TMP DP  RH WIND       PRES   REMARKS
ALTON          CLOUDY    53  51  94 CALM      29.93F
BELLEVILLE     CLOUDY    55  55 100 N8        29.91S
CAHOKIA*       CLOUDY    55  51  86 N7        29.93S
SPARTA*        CLOUDY    55  53  91 NW6       29.92F
$$

ILZ064>066-069>071-074>076-080>082-084>086-088>090-092>094-280600-
SOUTH-CENTRAL ILLINOIS

CITY           SKY/WX    TMP DP  RH WIND       PRES   REMARKS
CARBONDALE     CLOUDY    56  54  93 NW9       29.90S
CAIRO*         CLEAR     54  51  91 CALM      29.90S
EFFINGHAM*     CLOUDY    55  55 100 N9G18     29.89S
MARION         CLOUDY    57  55  94 NW6       29.90S
MT. VERNON     CLOUDY    56  54  93 VRB3      29.89R
CENTRALIA*     CLOUDY    56  55  94 NW10      29.89S
SALEM*         CLOUDY    57  54  90 N10       29.89R
METROPOLIS*    PTCLDY    54  52  92 W3        29.90S
$$

ILZ067-068-072-073-078-083-087-091-280600-
SOUTHEAST ILLINOIS

CITY           SKY/WX    TMP DP  RH WIND       PRES   REMARKS
LAWRENCEVILLE  CLOUDY    56  55  97 NW5       29.85S FOG
FLORA*         CLOUDY    57  55  91 N12       29.87R
FAIRFIELD*     CLOUDY    56  55  95 NW6       29.85S
HARRISBURG*    CLOUDY    56  54  93 NW8       29.89R
ROBINSON*      LGT RAIN  55  55  99 N12       29.86S
CARMI*         CLOUDY    55  53  92 W6        29.86S
$$

ABBREVIATIONS USED IN REMARKS
   TC - TEMPERATURE IN CELSIUS
  WCI - WIND CHILL INDEX
   HX - HEAT INDEX
  VSB - VISIBILITY
$$





USA.gov is the U.S. government's official web portal to all federal, state and local government web resources and services.